Tracking 29892 objects as of 21-Nov-2024
HD Live streaming from Space Station
objects crossing your sky now

SL-12 DEB

Track SL-12 DEB now!
10-day predictions


NORAD ID: 27805
Int'l Code: 1992-047L
Perigee: 430.1 km
Apogee: 10,616.9 km
Inclination: 65.2 °
Period: 215.2 minutes
Semi major axis: 11894 km
RCS: 0.048 m2 (small)
Launch date: July 30, 1992
Source: Commonwealth of Independent States (former USSR) (CIS)
Launch site: TYURATAM MISSILE AND SPACE COMPLEX (TTMTR)

Note: This is SATELLITE DEBRIS
Your satellite tracking list
Your tracking list is empty




NASA's NSSDC Master Catalog

Two Line Element Set (TLE):
1 27805U 92047L   24326.11968857  .00014644  00000-0  79641-2 0  9994
2 27805  65.1871 210.8406 4282123 115.4017 294.5801  6.69243640486203
Source of the keplerian elements: AFSPC